Hutchinson, MN

8:43 AM CST on December 15, 2017 (GMT -0600)
Hutchinson Municipal-Butler

Weather History for KHCD - July, 2013

Change the Weather History Date:

Friday, July 5, 2013

  Actual Average Record
Temperature  
Mean Temperature 79 °F -  
Max Temperature 88 °F 83 °F 97 °F (1982)
Min Temperature 70 °F 60 °F 46 °F (1967)
Cooling Degree Days 14    
Growing Degree Days 29 (Base 50)    
Moisture  
Dew Point 61 °F    
Average Humidity 57    
Maximum Humidity 67    
Minimum Humidity 43    
Precipitation  
Precipitation 0.00 in - - ()
Sea Level Pressure  
Sea Level Pressure 29.85 in    
Wind  
Wind Speed 10 mph (South)    
Max Wind Speed 17 mph    
Max Gust Speed 26 mph    
Visibility 10 miles    
Events      
Averages and records for this station are not official NWS values.
T = Trace of Precipitation, MM = Missing Value Source: NWS Daily Summary

Daily Weather History Graph

Daily Weather History Graph

Search for Another Location

Airport or City:

Trip Planner

Search our weather history database for the weather conditions in past years. The results will help you decide how hot, cold, wet, or windy it might be!

Date:

Astronomy

Jul. 05, 2013 Rise Set
Actual Time 5:37 AM CDT 9:06 PM CDT
Civil Twilight 5:01 AM CDT 9:42 PM CDT
Nautical Twilight 4:12 AM CDT 10:31 PM CDT
Astronomical Twilight 3:10 AM CDT 11:32 PM CDT
Moon 3:40 AM CDT (7/5) 6:59 PM CDT (7/5)
Length of Visible Light 16h 41m
Length of Day
15h 28m
Waning Crescent, 6% of the Moon is Illuminated
Jul 5
Waning Crescent
Jul 8
New
Jul 15
First Quarter
Jul 22
Full
Jul 29
Last Quarter

Hourly Weather History & Observations

Time (CDT) Temp. Heat Index Dew Point Humidity Pressure Visibility Wind Dir Wind Speed Gust Speed Precip Events Conditions
12:05 AM 75.2 °F - 57.2 °F 53% 29.89 in 10.0 mi South 9.2 mph - N/A   Clear
12:25 AM 75.2 °F - 57.2 °F 53% 29.89 in 10.0 mi South 9.2 mph - N/A   Clear
12:40 AM 74.5 °F - 57.6 °F 55% 29.89 in 10.0 mi South 9.2 mph - N/A   Clear
12:54 AM 74.3 °F - 57.7 °F 56% 29.89 in 10.0 mi South 10.4 mph - N/A   Clear
1:13 AM 74.5 °F - 57.4 °F 55% 29.88 in 10.0 mi South 11.5 mph 17.3 mph N/A   Clear
1:34 AM 74.5 °F - 57.2 °F 55% 29.88 in 10.0 mi South 11.5 mph 16.1 mph N/A   Clear
1:53 AM 74.5 °F - 57.2 °F 55% 29.89 in 10.0 mi South 11.5 mph - N/A   Clear
2:14 AM 73.8 °F - 57.2 °F 56% 29.89 in 10.0 mi South 10.4 mph 17.3 mph N/A   Clear
2:34 AM 73.6 °F - 57.2 °F 56% 29.89 in 10.0 mi South 10.4 mph 17.3 mph N/A   Clear
2:54 AM 72.9 °F - 57.4 °F 58% 29.89 in 10.0 mi South 11.5 mph - N/A   Clear
3:14 AM 72.5 °F - 57.4 °F 59% 29.89 in 10.0 mi South 10.4 mph 17.3 mph N/A   Clear
3:34 AM 72.0 °F - 57.4 °F 60% 29.89 in 10.0 mi South 9.2 mph 16.1 mph N/A   Clear
3:54 AM 71.6 °F - 57.6 °F 61% 29.89 in 10.0 mi South 11.5 mph 17.3 mph N/A   Clear
4:13 AM 70.9 °F - 57.7 °F 63% 29.89 in 10.0 mi South 8.1 mph - N/A   Clear
4:34 AM 70.5 °F - 58.1 °F 65% 29.89 in 10.0 mi SSE 8.1 mph - N/A   Clear
4:54 AM 70.3 °F - 58.1 °F 65% 29.88 in 10.0 mi SSE 8.1 mph - N/A   Scattered Clouds
5:14 AM 70.2 °F - 58.1 °F 65% 29.88 in 10.0 mi SSE 6.9 mph - N/A   Scattered Clouds
5:34 AM 70.0 °F - 58.3 °F 66% 29.88 in 10.0 mi SSE 8.1 mph - N/A   Clear
5:53 AM 70.2 °F - 58.3 °F 66% 29.88 in 10.0 mi SSE 6.9 mph - N/A   Scattered Clouds
6:14 AM 70.2 °F - 58.5 °F 66% 29.87 in 10.0 mi SE 5.8 mph - N/A   Scattered Clouds
6:34 AM 70.2 °F - 58.6 °F 67% 29.87 in 10.0 mi SSE 5.8 mph - N/A   Scattered Clouds
6:54 AM 71.2 °F - 59.2 °F 66% 29.87 in 10.0 mi South 6.9 mph - N/A   Scattered Clouds
7:14 AM 72.3 °F - 59.4 °F 64% 29.86 in 10.0 mi South 11.5 mph - N/A   Overcast
7:33 AM 72.3 °F - 59.0 °F 63% 29.86 in 10.0 mi South 13.8 mph 18.4 mph N/A   Scattered Clouds
7:54 AM 72.0 °F - 59.4 °F 64% 29.87 in 10.0 mi South 10.4 mph 18.4 mph N/A   Scattered Clouds
8:13 AM 72.0 °F - 59.4 °F 64% 29.86 in 10.0 mi South 9.2 mph 17.3 mph N/A   Mostly Cloudy
8:34 AM 72.1 °F - 59.9 °F 65% 29.86 in 10.0 mi SSE 6.9 mph 17.3 mph N/A   Mostly Cloudy
8:54 AM 72.5 °F - 60.1 °F 65% 29.85 in 10.0 mi SSE 8.1 mph - N/A   Light Drizzle
9:13 AM 72.5 °F - 60.8 °F 67% 29.87 in 10.0 mi SSW 6.9 mph - N/A   Mostly Cloudy
9:34 AM 72.7 °F - 60.8 °F 66% 29.87 in 10.0 mi South 6.9 mph - N/A   Mostly Cloudy
9:54 AM 73.6 °F - 61.2 °F 65% 29.87 in 10.0 mi South 5.8 mph - N/A   Mostly Cloudy
10:14 AM 74.8 °F - 61.7 °F 64% 29.87 in 10.0 mi South 10.4 mph 16.1 mph N/A   Mostly Cloudy
10:34 AM 75.0 °F - 61.3 °F 62% 29.86 in 10.0 mi South 11.5 mph 17.3 mph N/A   Mostly Cloudy
10:53 AM 75.0 °F - 61.0 °F 62% 29.87 in 10.0 mi South 13.8 mph 18.4 mph N/A   Overcast
11:14 AM 76.3 °F - 61.5 °F 60% 29.87 in 10.0 mi South 12.7 mph 18.4 mph N/A   Overcast
11:33 AM 78.6 °F - 63.3 °F 59% 29.86 in 10.0 mi South 12.7 mph 20.7 mph N/A   Scattered Clouds
11:53 AM 77.9 °F - 62.1 °F 58% 29.85 in 10.0 mi South 10.4 mph 17.3 mph N/A   Clear
12:11 PM 78.8 °F - 61.9 °F 56% 29.85 in 10.0 mi South 12.7 mph 19.6 mph N/A   Clear
12:34 PM 79.7 °F - 63.0 °F 56% 29.84 in 10.0 mi South 11.5 mph 20.7 mph N/A   Clear
12:54 PM 80.8 °F 82.0 °F 62.8 °F 54% 29.84 in 10.0 mi SSE 13.8 mph 23.0 mph N/A   Clear
1:13 PM 82.2 °F 83.3 °F 62.8 °F 52% 29.84 in 10.0 mi South 12.7 mph 19.6 mph N/A   Clear
1:33 PM 82.6 °F 83.8 °F 63.3 °F 52% 29.84 in 10.0 mi SSE 12.7 mph 19.6 mph N/A   Clear
1:54 PM 83.5 °F 84.7 °F 63.7 °F 51% 29.84 in 10.0 mi South 15.0 mph 19.6 mph N/A   Clear
2:14 PM 84.7 °F 86.1 °F 64.2 °F 50% 29.83 in 10.0 mi South 12.7 mph 25.3 mph N/A   Clear
2:34 PM 84.9 °F 86.1 °F 64.0 °F 49% 29.84 in 10.0 mi South 15.0 mph 25.3 mph N/A   Clear
2:53 PM 85.1 °F 86.1 °F 63.5 °F 48% 29.84 in 10.0 mi South 13.8 mph 26.5 mph N/A   Clear
3:14 PM 86.0 °F 87.6 °F 64.6 °F 49% 29.83 in 10.0 mi South 12.7 mph 23.0 mph N/A   Clear
3:34 PM 86.5 °F 88.4 °F 65.1 °F 49% 29.83 in 10.0 mi South 17.3 mph 21.9 mph N/A   Clear
3:53 PM 87.3 °F 89.2 °F 65.1 °F 48% 29.83 in 10.0 mi South 12.7 mph 20.7 mph N/A   Clear
4:14 PM 87.4 °F 89.8 °F 65.8 °F 49% 29.82 in 10.0 mi South 13.8 mph 20.7 mph N/A   Clear
4:34 PM 87.6 °F 89.7 °F 65.8 °F 48% 29.81 in 10.0 mi South 13.8 mph 23.0 mph N/A   Clear
4:54 PM 88.0 °F 89.3 °F 64.2 °F 45% 29.81 in 10.0 mi South 12.7 mph 20.7 mph N/A   Clear
5:13 PM 88.2 °F 89.3 °F 64.0 °F 44% 29.81 in 10.0 mi South 16.1 mph 21.9 mph N/A   Clear
5:34 PM 88.0 °F 89.3 °F 64.0 °F 45% 29.81 in 10.0 mi South 15.0 mph 24.2 mph N/A   Clear
5:53 PM 88.0 °F 89.0 °F 63.7 °F 44% 29.81 in 10.0 mi South 13.8 mph 21.9 mph N/A   Clear
6:14 PM 87.1 °F 88.0 °F 63.1 °F 45% 29.81 in 10.0 mi South 16.1 mph 19.6 mph N/A   Clear
6:34 PM 87.4 °F 88.0 °F 62.2 °F 43% 29.80 in 10.0 mi South 12.7 mph 21.9 mph N/A   Clear
6:54 PM 87.1 °F 87.8 °F 62.8 °F 44% 29.81 in 10.0 mi South 12.7 mph 21.9 mph N/A   Clear
7:13 PM 86.5 °F 87.3 °F 63.0 °F 45% 29.81 in 10.0 mi South 10.4 mph 17.3 mph N/A   Clear
7:34 PM 85.6 °F 86.8 °F 64.0 °F 48% 29.81 in 10.0 mi South 11.5 mph 16.1 mph N/A   Clear
7:53 PM 84.9 °F 86.1 °F 63.9 °F 49% 29.81 in 10.0 mi South 8.1 mph - N/A   Clear
8:14 PM 83.7 °F 84.9 °F 63.9 °F 51% 29.81 in 10.0 mi South 8.1 mph - N/A   Clear
8:33 PM 82.4 °F 83.9 °F 64.4 °F 54% 29.82 in 10.0 mi South 6.9 mph - N/A   Clear
8:54 PM 81.1 °F 82.8 °F 64.4 °F 57% 29.82 in 10.0 mi South 6.9 mph - N/A   Clear
9:13 PM 81.0 °F 82.3 °F 63.3 °F 55% 29.82 in 10.0 mi South 6.9 mph - N/A   Clear
9:34 PM 80.6 °F 81.8 °F 62.6 °F 54% 29.83 in 10.0 mi South 8.1 mph - N/A   Clear
9:54 PM 78.8 °F - 63.3 °F 59% 29.84 in 10.0 mi South 6.9 mph - N/A   Clear
10:13 PM 78.4 °F - 62.8 °F 58% 29.84 in 10.0 mi South 5.8 mph - N/A   Clear
10:34 PM 77.2 °F - 63.1 °F 62% 29.85 in 10.0 mi South 4.6 mph - N/A   Clear
10:53 PM 76.8 °F - 63.0 °F 62% 29.85 in 10.0 mi South 6.9 mph - N/A   Clear
11:14 PM 77.2 °F - 62.6 °F 61% 29.85 in 10.0 mi South 6.9 mph - N/A   Clear
11:34 PM 76.5 °F - 63.0 °F 63% 29.85 in 10.0 mi South 4.6 mph - N/A   Scattered Clouds
11:54 PM 77.0 °F - 63.0 °F 62% 29.85 in 10.0 mi South 3.5 mph - N/A   Mostly Cloudy